STARLINK-6091 (56119 NORAD) Tracking and Keplerian Element Data

This shows tracking and keplerian element data for the satellite.

Feedback or suggestion? Click here.




ElementValue
Catalog56119
NameSTARLINK-6091
Epoch Orbit656
Epoch Day127.25001157
Epoch Year2023
RAAN33.7064
Inclination43.0007
Eccentricity0.0001743
Argument of Perigee271.3772
Mean Anonmoly341.249
Mean Motion15.48887028
Decay Rate0.00050199
L11 56119U 23046AC 23127.25001157 .00050199 00000+0 90868-3 0 9990
L22 56119 43.0007 33.7064 0001743 271.3772 341.2490 15.48887028 6566



Live tracking and technical data element details for STARLINK-6091 (NORAD 56119). STARLINK-6091 can be tracked NOW for your location showing map with azimuth and elevation plus other details from your city location.







IsCatalogInMostPopularTable: catalog: 56119, numindb: 4
Update: records affected: 1



GetName: 56119 STARLINK-6091

Hit Count: updated at: Sat, 03 Jun 2023 17:50:29 GMT